Time,TemperatureF,DewpointF,PressureIn,WindDirection,WindDirectionDegrees,WindSpeedMPH,WindSpeedGustMPH,Humidity,HourlyPrecipIn,Conditions,Clouds,dailyrainin,SoftwareType,DateUTC
2013-01-12 00:30:00,14.0,-99.9,-100.00,North,-999,-999.0,-999.0,-999,-99.99,,,0.00,,2013-01-12 07:30:00,
2013-01-12 00:53:00,14.0,-99.9,-100.00,North,-999,-999.0,-999.0,-999,-99.99,,,0.00,,2013-01-12 07:53:00,
2013-01-12 01:02:00,14.0,-99.9,-100.00,North,-999,-999.0,-999.0,-999,-99.99,,,0.00,,2013-01-12 08:02:00,
2013-01-12 01:12:00,14.0,-99.9,-100.00,North,-999,-999.0,-999.0,-999,-99.99,,,0.00,,2013-01-12 08:12:00,
2013-01-12 01:22:00,14.0,-99.9,-100.00,North,-999,-999.0,-999.0,-999,-99.99,,,0.00,,2013-01-12 08:22:00,
2013-01-12 01:30:00,14.0,-99.9,-100.00,North,-999,-999.0,-999.0,-999,-99.99,,,0.00,,2013-01-12 08:30:00,
2013-01-12 01:53:00,14.0,-99.9,-100.00,North,-999,-999.0,-999.0,-999,-99.99,,,0.00,,2013-01-12 08:53:00,
2013-01-12 02:02:00,14.0,-99.9,-100.00,North,-999,-999.0,-999.0,-999,-99.99,,,0.00,,2013-01-12 09:02:00,
2013-01-12 02:12:00,14.0,-99.9,-100.00,North,-999,-999.0,-999.0,-999,-99.99,,,0.00,,2013-01-12 09:12:00,
2013-01-12 02:22:00,14.0,-99.9,-100.00,North,-999,-999.0,-999.0,-999,-99.99,,,0.00,,2013-01-12 09:22:00,
2013-01-12 02:30:00,14.0,-99.9,-100.00,North,-999,-999.0,-999.0,-999,0.00,,,0.00,,2013-01-12 09:30:00,
2013-01-12 02:53:00,14.0,-99.9,-100.00,North,-999,-999.0,-999.0,-999,0.00,,,0.00,,2013-01-12 09:53:00,
2013-01-12 03:02:00,14.0,-99.9,-100.00,North,-999,-999.0,-999.0,-999,0.00,,,0.00,,2013-01-12 10:02:00,
2013-01-12 03:12:00,14.0,-99.9,-100.00,North,-999,-999.0,-999.0,-999,0.00,,,0.00,,2013-01-12 10:12:00,
2013-01-12 03:22:00,14.0,-99.9,-100.00,North,-999,-999.0,-999.0,-999,0.00,,,0.00,,2013-01-12 10:22:00,
2013-01-12 03:30:00,14.0,-99.9,-100.00,North,-999,-999.0,-999.0,-999,0.00,,,-99.99,,2013-01-12 10:30:00,
2013-01-12 03:53:00,14.0,-99.9,-100.00,North,-999,-999.0,-999.0,-999,0.00,,,-99.99,,2013-01-12 10:53:00,
2013-01-12 04:02:00,14.0,-99.9,-100.00,North,-999,-999.0,-999.0,-999,0.00,,,-99.99,,2013-01-12 11:02:00,
2013-01-12 04:12:00,14.0,-99.9,-100.00,North,-999,-999.0,-999.0,-999,0.00,,,-99.99,,2013-01-12 11:12:00,
2013-01-12 04:23:00,14.0,-99.9,-100.00,North,-999,-999.0,-999.0,-999,0.00,,,-99.99,,2013-01-12 11:23:00,
2013-01-12 04:30:00,14.0,-99.9,-100.00,North,-999,-999.0,-999.0,-999,0.00,,,0.00,,2013-01-12 11:30:00,
2013-01-12 04:53:00,14.0,-99.9,-100.00,North,-999,-999.0,-999.0,-999,0.00,,,0.00,,2013-01-12 11:53:00,
2013-01-12 05:03:00,14.0,-99.9,-100.00,North,-999,-999.0,-999.0,-999,0.00,,,0.00,,2013-01-12 12:03:00,
2013-01-12 05:12:00,14.0,-99.9,-100.00,North,-999,-999.0,-999.0,-999,0.00,,,0.00,,2013-01-12 12:12:00,
2013-01-12 05:22:00,14.0,-99.9,-100.00,North,-999,-999.0,-999.0,-999,0.00,,,0.00,,2013-01-12 12:22:00,
2013-01-12 05:30:00,14.0,-99.9,-100.00,North,-999,-999.0,-999.0,-999,0.00,,,-99.99,,2013-01-12 12:30:00,
2013-01-12 05:53:00,14.0,-99.9,-100.00,North,-999,-999.0,-999.0,-999,0.00,,,-99.99,,2013-01-12 12:53:00,
2013-01-12 06:03:00,14.0,-99.9,-100.00,North,-999,-999.0,-999.0,-999,0.00,,,-99.99,,2013-01-12 13:03:00,
2013-01-12 06:12:00,14.0,-99.9,-100.00,North,-999,-999.0,-999.0,-999,0.00,,,-99.99,,2013-01-12 13:12:00,
2013-01-12 06:23:00,14.0,-99.9,-100.00,North,-999,-999.0,-999.0,-999,0.00,,,-99.99,,2013-01-12 13:23:00,
2013-01-12 06:30:00,14.0,-99.9,-100.00,North,-999,-999.0,-999.0,-999,0.01,,,-99.99,,2013-01-12 13:30:00,
2013-01-12 06:53:00,14.0,-99.9,-100.00,North,-999,-999.0,-999.0,-999,0.01,,,-99.99,,2013-01-12 13:53:00,
2013-01-12 07:03:00,14.0,-99.9,-100.00,North,-999,-999.0,-999.0,-999,0.01,,,-99.99,,2013-01-12 14:03:00,
2013-01-12 07:13:00,14.0,-99.9,-100.00,North,-999,-999.0,-999.0,-999,0.01,,,-99.99,,2013-01-12 14:13:00,
2013-01-12 07:22:00,14.0,-99.9,-100.00,North,-999,-999.0,-999.0,-999,0.01,,,-99.99,,2013-01-12 14:22:00,
2013-01-12 07:30:00,15.0,-99.9,-100.00,North,-999,-999.0,-999.0,-999,0.00,,,0.00,,2013-01-12 14:30:00,
2013-01-12 07:53:00,15.0,-99.9,-100.00,North,-999,-999.0,-999.0,-999,0.00,,,0.00,,2013-01-12 14:53:00,
2013-01-12 08:04:00,15.0,-99.9,-100.00,North,-999,-999.0,-999.0,-999,0.00,,,0.00,,2013-01-12 15:04:00,
2013-01-12 08:13:00,15.0,-99.9,-100.00,North,-999,-999.0,-999.0,-999,0.00,,,0.00,,2013-01-12 15:13:00,
2013-01-12 08:23:00,15.0,-99.9,-100.00,North,-999,-999.0,-999.0,-999,0.00,,,0.00,,2013-01-12 15:23:00,
2013-01-12 08:30:00,15.0,-99.9,-100.00,North,-999,-999.0,-999.0,-999,-99.99,,,0.00,,2013-01-12 15:30:00,
2013-01-12 08:53:00,15.0,-99.9,-100.00,North,-999,-999.0,-999.0,-999,-99.99,,,0.00,,2013-01-12 15:53:00,
2013-01-12 09:03:00,15.0,-99.9,-100.00,North,-999,-999.0,-999.0,-999,-99.99,,,0.00,,2013-01-12 16:03:00,
2013-01-12 09:13:00,15.0,-99.9,-100.00,North,-999,-999.0,-999.0,-999,-99.99,,,0.00,,2013-01-12 16:13:00,
2013-01-12 09:23:00,15.0,-99.9,-100.00,North,-999,-999.0,-999.0,-999,-99.99,,,0.00,,2013-01-12 16:23:00,
2013-01-12 09:30:00,15.0,-99.9,-100.00,North,-999,-999.0,-999.0,-999,0.02,,,0.02,,2013-01-12 16:30:00,
2013-01-12 09:53:00,15.0,-99.9,-100.00,North,-999,-999.0,-999.0,-999,0.02,,,0.02,,2013-01-12 16:53:00,
2013-01-12 10:03:00,15.0,-99.9,-100.00,North,-999,-999.0,-999.0,-999,0.02,,,0.02,,2013-01-12 17:03:00,
2013-01-12 10:13:00,15.0,-99.9,-100.00,North,-999,-999.0,-999.0,-999,0.02,,,0.02,,2013-01-12 17:13:00,
2013-01-12 10:23:00,15.0,-99.9,-100.00,North,-999,-999.0,-999.0,-999,0.02,,,0.02,,2013-01-12 17:23:00,
2013-01-12 11:30:00,17.0,-99.9,-100.00,North,-999,-999.0,-999.0,-999,0.07,,,0.07,,2013-01-12 18:30:00,
2013-01-12 11:53:00,17.0,-99.9,-100.00,North,-999,-999.0,-999.0,-999,0.07,,,0.07,,2013-01-12 18:53:00,
2013-01-12 12:03:00,17.0,-99.9,-100.00,North,-999,-999.0,-999.0,-999,0.07,,,0.07,,2013-01-12 19:03:00,
2013-01-12 12:13:00,17.0,-99.9,-100.00,North,-999,-999.0,-999.0,-999,0.07,,,0.07,,2013-01-12 19:13:00,
2013-01-12 12:23:00,17.0,-99.9,-100.00,North,-999,-999.0,-999.0,-999,0.07,,,0.07,,2013-01-12 19:23:00,
2013-01-12 12:30:00,19.0,-99.9,-100.00,North,-999,-999.0,-999.0,-999,0.00,,,0.09,,2013-01-12 19:30:00,
2013-01-12 13:03:00,19.0,-99.9,-100.00,North,-999,-999.0,-999.0,-999,0.00,,,0.09,,2013-01-12 20:03:00,
2013-01-12 13:13:00,19.0,-99.9,-100.00,North,-999,-999.0,-999.0,-999,0.00,,,0.09,,2013-01-12 20:13:00,
2013-01-12 13:23:00,19.0,-99.9,-100.00,North,-999,-999.0,-999.0,-999,0.00,,,0.09,,2013-01-12 20:23:00,
2013-01-12 13:30:00,17.0,-99.9,-100.00,North,-999,-999.0,-999.0,-999,0.00,,,0.10,,2013-01-12 20:30:00,
2013-01-12 13:53:00,17.0,-99.9,-100.00,North,-999,-999.0,-999.0,-999,0.00,,,0.10,,2013-01-12 20:53:00,
2013-01-12 14:03:00,17.0,-99.9,-100.00,North,-999,-999.0,-999.0,-999,0.00,,,0.10,,2013-01-12 21:03:00,
2013-01-12 14:13:00,17.0,-99.9,-100.00,North,-999,-999.0,-999.0,-999,0.00,,,0.10,,2013-01-12 21:13:00,
2013-01-12 14:23:00,17.0,-99.9,-100.00,North,-999,-999.0,-999.0,-999,0.00,,,0.10,,2013-01-12 21:23:00,
2013-01-12 14:30:00,16.0,-99.9,-100.00,North,-999,-999.0,-999.0,-999,0.00,,,0.10,,2013-01-12 21:30:00,
2013-01-12 14:53:00,16.0,-99.9,-100.00,North,-999,-999.0,-999.0,-999,0.00,,,0.10,,2013-01-12 21:53:00,
2013-01-12 15:03:00,16.0,-99.9,-100.00,North,-999,-999.0,-999.0,-999,0.00,,,0.10,,2013-01-12 22:03:00,
2013-01-12 15:13:00,16.0,-99.9,-100.00,North,-999,-999.0,-999.0,-999,0.00,,,0.10,,2013-01-12 22:13:00,
2013-01-12 15:23:00,16.0,-99.9,-100.00,North,-999,-999.0,-999.0,-999,0.00,,,0.10,,2013-01-12 22:23:00,
2013-01-12 15:30:00,15.0,-99.9,-100.00,North,-999,-999.0,-999.0,-999,0.00,,,0.09,,2013-01-12 22:30:00,
2013-01-12 15:53:00,15.0,-99.9,-100.00,North,-999,-999.0,-999.0,-999,0.00,,,0.09,,2013-01-12 22:53:00,
2013-01-12 16:03:00,15.0,-99.9,-100.00,North,-999,-999.0,-999.0,-999,0.00,,,0.09,,2013-01-12 23:03:00,
2013-01-12 16:13:00,15.0,-99.9,-100.00,North,-999,-999.0,-999.0,-999,0.00,,,0.09,,2013-01-12 23:13:00,
2013-01-12 16:23:00,15.0,-99.9,-100.00,North,-999,-999.0,-999.0,-999,0.00,,,0.09,,2013-01-12 23:23:00,
2013-01-12 16:30:00,14.0,-99.9,-100.00,North,-999,-999.0,-999.0,-999,-99.99,,,0.08,,2013-01-12 23:30:00,
2013-01-12 16:54:00,14.0,-99.9,-100.00,North,-999,-999.0,-999.0,-999,-99.99,,,0.08,,2013-01-12 23:54:00,
2013-01-12 17:03:00,14.0,-99.9,-100.00,North,-999,-999.0,-999.0,-999,-99.99,,,0.08,,2013-01-13 00:03:00,
2013-01-12 17:13:00,14.0,-99.9,-100.00,North,-999,-999.0,-999.0,-999,-99.99,,,0.08,,2013-01-13 00:13:00,
2013-01-12 17:23:00,14.0,-99.9,-100.00,North,-999,-999.0,-999.0,-999,-99.99,,,0.08,,2013-01-13 00:23:00,
2013-01-12 17:30:00,12.0,-99.9,-100.00,North,-999,-999.0,-999.0,-999,-99.99,,,0.07,,2013-01-13 00:30:00,
2013-01-12 17:53:00,12.0,-99.9,-100.00,North,-999,-999.0,-999.0,-999,-99.99,,,0.07,,2013-01-13 00:53:00,
2013-01-12 18:03:00,12.0,-99.9,-100.00,North,-999,-999.0,-999.0,-999,-99.99,,,0.07,,2013-01-13 01:03:00,
2013-01-12 18:12:00,12.0,-99.9,-100.00,North,-999,-999.0,-999.0,-999,-99.99,,,0.07,,2013-01-13 01:12:00,
2013-01-12 18:23:00,12.0,-99.9,-100.00,North,-999,-999.0,-999.0,-999,-99.99,,,0.07,,2013-01-13 01:23:00,
2013-01-12 18:30:00,11.0,-99.9,-100.00,North,-999,-999.0,-999.0,-999,0.01,,,0.08,,2013-01-13 01:30:00,
2013-01-12 18:53:00,11.0,-99.9,-100.00,North,-999,-999.0,-999.0,-999,0.01,,,0.08,,2013-01-13 01:53:00,
2013-01-12 19:03:00,11.0,-99.9,-100.00,North,-999,-999.0,-999.0,-999,0.01,,,0.08,,2013-01-13 02:03:00,
2013-01-12 19:13:00,11.0,-99.9,-100.00,North,-999,-999.0,-999.0,-999,0.01,,,0.08,,2013-01-13 02:13:00,
2013-01-12 19:23:00,11.0,-99.9,-100.00,North,-999,-999.0,-999.0,-999,0.01,,,0.08,,2013-01-13 02:23:00,
2013-01-12 19:30:00,12.0,-99.9,-100.00,North,-999,-999.0,-999.0,-999,0.00,,,0.09,,2013-01-13 02:30:00,
2013-01-12 19:53:00,12.0,-99.9,-100.00,North,-999,-999.0,-999.0,-999,0.00,,,0.09,,2013-01-13 02:53:00,
2013-01-12 20:03:00,12.0,-99.9,-100.00,North,-999,-999.0,-999.0,-999,0.00,,,0.09,,2013-01-13 03:03:00,
2013-01-12 20:12:00,12.0,-99.9,-100.00,North,-999,-999.0,-999.0,-999,0.00,,,0.09,,2013-01-13 03:12:00,
2013-01-12 20:23:00,12.0,-99.9,-100.00,North,-999,-999.0,-999.0,-999,0.00,,,0.09,,2013-01-13 03:23:00,
2013-01-12 20:30:00,11.0,-99.9,-100.00,North,-999,-999.0,-999.0,-999,0.00,,,0.09,,2013-01-13 03:30:00,
2013-01-12 20:53:00,11.0,-99.9,-100.00,North,-999,-999.0,-999.0,-999,0.00,,,0.09,,2013-01-13 03:53:00,
2013-01-12 21:03:00,11.0,-99.9,-100.00,North,-999,-999.0,-999.0,-999,0.00,,,0.09,,2013-01-13 04:03:00,
2013-01-12 21:12:00,11.0,-99.9,-100.00,North,-999,-999.0,-999.0,-999,0.00,,,0.09,,2013-01-13 04:12:00,
2013-01-12 21:23:00,11.0,-99.9,-100.00,North,-999,-999.0,-999.0,-999,0.00,,,0.09,,2013-01-13 04:23:00,
2013-01-12 21:30:00,11.0,-99.9,-100.00,North,-999,-999.0,-999.0,-999,0.00,,,0.09,,2013-01-13 04:30:00,
2013-01-12 21:53:00,11.0,-99.9,-100.00,North,-999,-999.0,-999.0,-999,0.00,,,0.09,,2013-01-13 04:53:00,
2013-01-12 22:04:00,11.0,-99.9,-100.00,North,-999,-999.0,-999.0,-999,0.00,,,0.09,,2013-01-13 05:04:00,
2013-01-12 22:12:00,11.0,-99.9,-100.00,North,-999,-999.0,-999.0,-999,0.00,,,0.09,,2013-01-13 05:12:00,
2013-01-12 22:23:00,11.0,-99.9,-100.00,North,-999,-999.0,-999.0,-999,0.00,,,0.09,,2013-01-13 05:23:00,
2013-01-12 22:30:00,12.0,-99.9,-100.00,North,-999,-999.0,-999.0,-999,0.01,,,0.09,,2013-01-13 05:30:00,
2013-01-12 23:03:00,12.0,-99.9,-100.00,North,-999,-999.0,-999.0,-999,0.01,,,0.09,,2013-01-13 06:03:00,
2013-01-12 23:12:00,12.0,-99.9,-100.00,North,-999,-999.0,-999.0,-999,0.01,,,0.09,,2013-01-13 06:12:00,
2013-01-12 23:22:00,12.0,-99.9,-100.00,North,-999,-999.0,-999.0,-999,0.01,,,0.09,,2013-01-13 06:22:00,
2013-01-12 23:30:00,12.0,-99.9,-100.00,North,-999,-999.0,-999.0,-999,0.00,,,0.08,,2013-01-13 06:30:00,
2013-01-12 23:53:00,12.0,-99.9,-100.00,North,-999,-999.0,-999.0,-999,0.00,,,0.08,,2013-01-13 06:53:00,